This is the latest recevied weather packets stored in our database for station/object N8QQQ. If no packets are shown the sender has not sent any weather packets the latest 10 day(s).
| Time | Temp. | Humidity | Pressure | Rain* | Wind** | Luminosity | Snow |
|---|---|---|---|---|---|---|---|
| 1778060310 | -0.56° C | 78% | 1010.3 hPa | 0 mm | - | 0 W/m² | - |
| 1778060006 | -0.56° C | 79% | 1010.2 hPa | 0 mm | - | 0 W/m² | - |
| 1778059704 | -0.56° C | 78% | 1010.3 hPa | 0 mm | - | 0 W/m² | - |
| 1778059402 | -0.56° C | 79% | 1010.2 hPa | 0 mm | - | 0 W/m² | - |
| 1778059098 | -0.56° C | 77% | 1010.3 hPa | 0 mm | - | 0 W/m² | - |
| 1778058796 | -0.56° C | 78% | 1010.1 hPa | 0 mm | - | 0 W/m² | - |
| 1778058494 | -0.56° C | 77% | 1010.2 hPa | 0 mm | - | 0 W/m² | - |
| 1778058191 | -1.11° C | 78% | 1010.2 hPa | 0 mm | - | 0 W/m² | - |
| 1778057887 | -1.11° C | 79% | 1010.2 hPa | 0 mm | - | 0 W/m² | - |
| 1778057584 | -1.11° C | 80% | 1010.2 hPa | 0 mm | - | 0 W/m² | - |
| 1778057280 | -1.11° C | 79% | 1010.2 hPa | 0 mm | - | 0 W/m² | - |
| 1778056977 | -1.11° C | 81% | 1010.2 hPa | 0 mm | - | 0 W/m² | - |
| 1778056674 | -1.11° C | 84% | 1010.3 hPa | 0 mm | - | 0 W/m² | - |
| 1778056371 | -1.11° C | 81% | 1010.2 hPa | 0 mm | - | 0 W/m² | - |
| 1778056069 | -1.11° C | 81% | 1010.3 hPa | 0 mm | - | 0 W/m² | - |
| 1778055764 | -2.22° C | 87% | 1010.1 hPa | 0 mm | - | 0 W/m² | - |
| 1778055462 | -2.22° C | 90% | 1010.3 hPa | 0 mm | - | 0 W/m² | - |
| 1778055159 | -2.22° C | 90% | 1010.2 hPa | 0 mm | - | 0 W/m² | - |
| 1778054857 | -2.78° C | 90% | 1010.3 hPa | 0 mm | - | 0 W/m² | - |
| 1778054553 | -2.78° C | 91% | 1010.4 hPa | 0 mm | - | 0 W/m² | - |
| 1778054251 | -2.78° C | 91% | 1010.5 hPa | 0 mm | - | 0 W/m² | - |
| 1778053948 | -2.78° C | 90% | 1010.2 hPa | 0 mm | - | 0 W/m² | - |
| 1778053646 | -2.78° C | 90% | 1010.2 hPa | 0 mm | - | 0 W/m² | - |
| 1778053342 | -3.33° C | 91% | 1010.2 hPa | 0 mm | - | 0 W/m² | - |
| 1778053040 | -3.33° C | 91% | 1010.2 hPa | 0 mm | - | 0 W/m² | - |
* Rain latest hour (hover to see other rain measurements)
** Current wind speed in m/s (hover to see current wind gust speed)